This is the latest recevied weather packets stored in our database for station/object KC3SOZ. If no packets are shown the sender has not sent any weather packets the latest 10 day(s).
| Time | Temp. | Humidity | Pressure | Rain* | Wind** | Luminosity | Snow |
|---|---|---|---|---|---|---|---|
| 1778278145 | 15.56° C | 59% | 1011.6 hPa | 0 mm | - | 49 W/m² | - |
| 1778277842 | 15.56° C | 57% | 1011.5 hPa | 0 mm | - | 64 W/m² | - |
| 1778277538 | 15.56° C | 57% | 1011.6 hPa | 0 mm | - | 66 W/m² | - |
| 1778277235 | 15.56° C | 56% | 1011.3 hPa | 0 mm | - | 94 W/m² | - |
| 1778276932 | 15.56° C | 57% | 1011.6 hPa | 0 mm | - | 96 W/m² | - |
| 1778276630 | 15.56° C | 58% | 1011.5 hPa | 0 mm | - | 119 W/m² | - |
| 1778276326 | 15.56° C | 59% | 1011.4 hPa | 0 mm | - | 197 W/m² | - |
| 1778276023 | 15° C | 63% | 1011.6 hPa | 0 mm | - | 124 W/m² | - |
| 1778275718 | 15° C | 61% | 1011.8 hPa | 0 mm | - | 75 W/m² | - |
| 1778275415 | 15° C | 63% | 1011.9 hPa | 0 mm | - | 42 W/m² | - |
| 1778275105 | 15° C | 62% | 1011.9 hPa | 0 mm | - | 37 W/m² | - |
| 1778274801 | 15° C | 61% | 1011.8 hPa | 0 mm | - | 51 W/m² | - |
| 1778274499 | 15.56° C | 62% | 1011.7 hPa | 0 mm | - | 76 W/m² | - |
| 1778274196 | 15.56° C | 59% | 1011.6 hPa | 0 mm | - | 87 W/m² | - |
| 1778273893 | 15.56° C | 58% | 1011.6 hPa | 0 mm | - | 147 W/m² | - |
| 1778273589 | 15.56° C | 59% | 1011.9 hPa | 0 mm | - | 89 W/m² | - |
| 1778273285 | 15.56° C | 57% | 1011.7 hPa | 0 mm | - | 63 W/m² | - |
| 1778272982 | 15.56° C | 58% | 1011.6 hPa | 0 mm | - | 93 W/m² | - |
| 1778272678 | 15.56° C | 57% | 1011.8 hPa | 0 mm | - | 123 W/m² | - |
| 1778272374 | 16.11° C | 55% | 1011.7 hPa | 0 mm | - | 146 W/m² | - |
| 1778272070 | 16.11° C | 58% | 1011.7 hPa | 0 mm | - | 223 W/m² | - |
| 1778271768 | 16.67° C | 54% | 1011.8 hPa | 0 mm | - | 284 W/m² | - |
| 1778271465 | 16.67° C | 56% | 1012 hPa | 0 mm | - | 568 W/m² | - |
| 1778271161 | 16.67° C | 55% | 1012.1 hPa | 0 mm | - | 575 W/m² | - |
| 1778270858 | 16.67° C | 58% | 1011.9 hPa | 0 mm | - | 708 W/m² | - |
* Rain latest hour (hover to see other rain measurements)
** Current wind speed in m/s (hover to see current wind gust speed)